RH
65 61 60 57 54 56 58 50 61 39 44 37 56 47 47 51 50 50 50 48 48 49 48 45 44 48 49 52 53 48 41 40 46 42 44 43 40 42 43 45 53 63 65 62
76 66 62 60 51 51 54 52 50 47 42 41 54 55 56 53 56 57 49 44 45 48 51 52 53 56 55 56 55 50 45 46 45 47 45 42 43 48 52 56 65 71 78 68
69 63 66 76 51 55 49 49 50 52 38 43 53 60 62 59 59 52 47 47 49 55 53 61 60 61 58 56 54 50 51 50 47 45 49 51 51 56 57 59 64 59 49 42
83 81 96 51 48 53 51 45 48 51 41 43 50 51 50 63 60 55 55 56 58 59 64 68 69 67 63 58 57 59 57 51 48 51 53 54 54 54 53 50 45 43 40 40
92 92 63 58 48 52 55 47 49 56 48 48 51 54 45 56 53 61 63 63 59 66 74 76 73 68 63 62 63 59 52 51 52 52 51 49 49 44 41 41 42 46 45 42
94 94 83 48 54 56 55 55 47 51 48 47 51 56 50 55 59 57 64 67 69 78 75 77 74 65 65 62 61 57 55 55 51 50 50 48 46 46 46 50 54 55 56 55
91 93 72 59 55 54 62 47 46 45 47 50 52 56 58 53 58 65 72 76 77 79 78 67 69 68 62 58 58 58 55 55 53 50 51 48 51 54 54 58 62 64 65 62
90 99 94 63 67 55 57 62 57 53 53 54 57 58 60 59 61 66 71 74 71 71 73 68 63 62 60 62 62 61 58 55 54 52 50 52 55 58 60 65 63 60 63 66
79 72 64 58 61 60 55 60 52 52 51 55 59 58 59 63 58 60 61 61 67 67 66 66 67 65 57 54 50 49 49 48 47 46 50 52 55 58 65 68 67 64 66 67
79 66 61 61 56 62 53 56 54 57 58 57 60 60 59 57 53 55 61 66 65 66 62 59 56 54 57 47 49 45 43 43 45 47 52 53 54 58 57 55 55 59 64 65
74 73 64 61 58 58 56 61 65 62 57 58 59 58 58 59 60 61 61 62 61 61 61 60 58 55 54 46 44 44 43 46 45 49 52 55 57 59 58 58 64 68 74 75
74 72 63 63 60 62 68 71 70 67 62 60 61 61 61 62 61 59 59 56 54 55 58 57 55 55 58 53 49 45 42 46 47 48 54 65 62 62 71 75 76 68 64 63
72 71 69 69 76 71 69 66 62 59 58 57 56 52 50 51 51 50 52 52 53 55 56 58 60 56 50 52 60 57 53 51 54 47 59 68 72 87 88 64 59 60 65 71
67 70 68 65 65 62 61 58 55 56 54 48 45 45 43 39 36 35 35 35 34 34 32 35 39 50 57 65 66 73 78 60 53 55 69 74 85 87 62 58 61 75 80 81
69 68 65 66 59 53 49 47 46 44 42 39 37 33 31 32 31 30 29 31 32 35 39 37 39 48 60 68 69 72 63 54 54 74 77 87 83 62 60 64 73 80 82 84
62 56 55 53 50 50 49 45 42 41 39 37 36 33 31 28 30 31 32 35 41 46 45 37 40 47 56 69 73 63 57 59 83 82 88 83 62 62 65 70 76 77 76 75
55 55 55 55 53 51 51 49 47 42 36 31 29 28 32 41 43 52 56 52 50 51 46 40 43 51 57 59 58 64 76 91 96 89 76 61 64 65 67 70 72 70 67 64
57 57 53 53 53 53 51 43 35 34 38 39 41 42 44 49 46 51 55 59 57 55 42 41 44 51 59 64 74 81 87 93 81 66 61 64 65 63 65 65 64 61 56 53
54 53 52 45 40 40 44 45 43 41 48 48 48 54 50 41 39 42 47 51 54 47 44 55 64 71 83 89 87 84 81 64 59 62 63 62 61 61 60 58 56 53 51 49
48 46 44 43 42 47 52 48 48 50 52 55 56 54 39 35 36 39 46 49 48 47 52 67 77 82 85 77 74 67 61 60 62 62 60 58 57 56 55 53 51 49 47 47
47 48 45 46 48 52 51 54 53 58 66 65 63 51 41 39 39 45 49 52 54 59 62 65 68 61 55 62 66 65 65 66 66 63 59 56 54 53 51 49 47 45 45 46
47 47 46 47 49 48 53 57 61 62 59 54 48 46 41 47 51 53 53 53 53 55 56 54 50 52 53 54 57 59 63 65 65 63 58 54 52 51 48 47 45 45 45 45
44 42 45 52 58 57 59 59 61 58 55 52 50 51 49 51 59 61 52 44 44 47 47 50 56 61 61 61 62 61 61 61 59 58 55 52 50 48 47 46 45 45 45 46
50 55 58 53 51 51 53 55 55 57 60 63 63 60 54 50 53 54 47 44 44 45 49 54 55 56 57 58 59 58 57 57 55 54 53 50 48 48 47 46 46 46 47 46
64 58 56 58 56 55 55 60 61 61 62 63 62 62 61 64 65 63 59 56 55 53 55 55 53 52 52 53 54 55 57 56 54 52 51 48 47 47 47 46 47 46 46 45
62 62 59 56 55 54 53 53 54 55 57 58 58 60 63 66 67 67 65 66 65 62 61 57 57 58 57 64 63 58 56 57 56 52 49 46 46 46 46 46 45 44 43 43
57 55 51 50 49 49 49 50 51 52 55 59 62 65 66 70 68 67 65 66 68 70 70 66 62 62 63 69 67 60 59 58 57 53 48 45 44 44 45 45 44 43 42 42